Stations météo

réclame
Mon MeteoGroup
Ölands Södra Udde, Suède (2644): Température de l'air & dewpoint: 11.01.2019 01:00:00 - 17.01.2019 01:00:00 (CET)Ölands Södra Udde, Suède (2644): Vitesse du vent & gusts: 11.01.2019 01:00:00 - 17.01.2019 01:00:00 (CET)Ölands Södra Udde, Suède (2644): Direction du vent: 11.01.2019 01:00:00 - 17.01.2019 01:00:00 (CET)Ölands Södra Udde, Suède (2644): reduced air pressure: 11.01.2019 01:00:00 - 17.01.2019 01:00:00 (CET)Ölands Södra Udde, Suède (2644): visibility: 11.01.2019 01:00:00 - 17.01.2019 01:00:00 (CET)Ölands Södra Udde, Suède (2644): Quantités de précipitations: 11.01.2019 01:00:00 - 17.01.2019 01:00:00 (CET)
Date & Time tt [°C] td [°C] ff [km/h] ff [knt] fx [km/h] fx [knt] dd ppp [hPa] vv [km] rr [mm]
17.01.2019 01:00:00 4,1 3,5 50 27 69 38 WSW 988,7 6 0,0
17.01.2019 00:00:00 4,2 3,8 48 26 68 37 SW 989,6 4,4 0,0
16.01.2019 23:00:00 4,6 3,9 48 26 66 35 SW 990,1 15 0,0
16.01.2019 22:00:00 4,7 4,1 42 23 58 32 SW 990,7 11 0,0
16.01.2019 21:00:00 4,6 4,0 41 22 58 32 SW 991,4 15 0,0
16.01.2019 20:00:00 4,5 4,1 40 22 58 32 SW 992,0 14 0,0
16.01.2019 19:00:00 4,6 4,0 41 22 57 31 SW 992,6 8 0,0
16.01.2019 18:00:00 4,3 3,7 40 21 51 28 WSW 993,4 11 0,0
16.01.2019 17:00:00 4,0 3,4 33 18 46 25 WSW 994,2 10 0,0
16.01.2019 16:00:00 4,0 3,6 34 18 43 23 SW 994,9 9 0,0
16.01.2019 15:00:00 3,8 3,4 28 15 37 20 WSW 995,4 9 0,0
16.01.2019 14:00:00 3,8 3,5 25 14 37 20 SW 996,1 9 0,0
16.01.2019 13:00:00 3,4 3,3 19 11 29 16 SSW 996,8 3,8 0,0
16.01.2019 12:00:00 3,0 2,9 18 10 24 13 SSW 997,8 4,6 0,0
16.01.2019 11:00:00 2,6 2,5 19 10 23 12 SSW 998,8 3,3 0,0
16.01.2019 10:00:00 1,4 1,1 13 7 14 8 SSE 999,4 15 0,0
16.01.2019 09:00:00 0,7 0,4 9 5 9 5 SE 999,8 32 0,0
16.01.2019 08:00:00 -0,4 -0,7 4 2 6 4 ESE 1000,0 16 0,0
16.01.2019 07:00:00 -0,8 -1,5 2 1 10 6 N 999,9 18 0,0
16.01.2019 06:00:00 1,1 0,4 3 2 10 6 SW 999,8 50 0,0
16.01.2019 05:00:00 0,8 -0,1 6 3 15 8 WSW 999,8 41 0,0
16.01.2019 04:00:00 0,8 -0,2 7 4 19 10 W 999,8 32 0,0
16.01.2019 03:00:00 0,7 -0,5 11 6 20 11 W 999,4 50 0,0
16.01.2019 02:00:00 0,3 -1,3 15 8 24 13 WNW 998,9 50 0,0
16.01.2019 01:00:00 -0,2 -1,0 13 7 24 13 WNW 998,5 50 0,0
16.01.2019 00:00:00 -1,2 -1,8 19 11 24 13 NW 998,2 50 0,0
15.01.2019 23:00:00 -1,7 -2,0 17 9 27 14 WNW 997,8 50 0,0
15.01.2019 22:00:00 -1,5 -1,6 18 10 27 14 NNW 997,1 50 0,0
15.01.2019 21:00:00 -1,6 -1,7 9 5 25 13 N 995,9 50 0,0
15.01.2019 20:00:00 -0,3 -0,4 11 6 25 13 N 994,5 25 0,2
15.01.2019 19:00:00 0,1 0,0 0 0 18 10 N 993,4 2,9 0,4
15.01.2019 18:00:00 -0,7 -0,8 11 6 17 9 SE 993,4 2,9 0,5
15.01.2019 17:00:00 -1,2 -1,6 0 0 36 19 N 994,8 2,4 0,9
15.01.2019 16:00:00 -1,0 -1,7 15 8 42 23 W 996,7 3,8 0,6
15.01.2019 15:00:00 -0,3 -2,8 32 17 42 23 W 997,7 11 0,0
15.01.2019 14:00:00 0,8 -6,5 16 9 27 14 W 998,2 50 0,0
15.01.2019 13:00:00 0,7 -5,1 19 10 34 18 WNW 999,0 50 0,0
15.01.2019 12:00:00 1,7 -5,0 21 12 45 24 WNW 999,7 50 0,0
15.01.2019 11:00:00 1,3 -5,0 29 16 50 27 NW 999,9 50 0,0
15.01.2019 10:00:00 1,4 -4,3 36 20 52 28 WNW 1000,1 50 0,0
15.01.2019 09:00:00 0,7 -4,9 40 22 56 30 WNW 999,8 50 0,0
15.01.2019 08:00:00 -0,2 -5,8 41 22 56 31 NW 999,0 50 0,0
15.01.2019 07:00:00 0,1 -5,7 45 24 62 33 NW 998,6 50 0,0
15.01.2019 06:00:00 0,3 -5,7 46 25 64 35 NW 998,5 50 0,0
15.01.2019 05:00:00 0,4 -5,6 49 26 64 35 WNW 997,9 50 0,0
15.01.2019 04:00:00 0,5 -5,5 45 25 63 34 WNW 997,9 50 0,0
15.01.2019 03:00:00 0,8 -5,2 48 26 66 35 WNW 997,6 50 0,0
15.01.2019 02:00:00 1,0 -5,0 48 26 67 36 WNW 997,2 50 0,0
15.01.2019 01:00:00 1,2 -5,1 51 28 67 36 WNW 996,3 50 0,0
15.01.2019 00:00:00 1,3 -4,6 49 26 66 36 WNW 995,8 50 0,0
14.01.2019 23:00:00 1,5 -4,6 48 26 69 38 WNW 995,6 50 0,0
14.01.2019 22:00:00 1,6 -5,3 54 29 69 38 WNW 995,5 50 0,0
14.01.2019 21:00:00 1,5 -5,4 54 29 70 38 NW 994,9 50 0,0
14.01.2019 20:00:00 1,5 -5,9 51 28 76 41 WNW 994,2 50 0,0
14.01.2019 19:00:00 1,6 -6,2 56 30 77 42 WNW 993,1 50 0,0
14.01.2019 18:00:00 1,4 -5,7 56 30 77 42 WNW 992,1 50 0,0
14.01.2019 17:00:00 1,1 -5,8 54 29 73 40 WNW 991,2 50 0,0
14.01.2019 16:00:00 0,8 -7,2 41 22 64 35 WNW 990,6 50 -
14.01.2019 15:00:00 0,7 -8,0 51 28 64 35 WNW 990,4 50 0,0
14.01.2019 14:00:00 1,6 -6,5 50 27 62 34 NW 989,5 50 0,0
14.01.2019 13:00:00 0,2 -7,4 44 24 62 34 NW 989,4 50 0,0
14.01.2019 12:00:00 0,4 -6,0 41 22 64 35 NW 988,9 50 0,0
14.01.2019 11:00:00 -0,1 -5,9 43 23 64 35 NW 988,5 50 0,0
14.01.2019 10:00:00 -0,8 -5,8 45 24 59 32 NW 987,6 50 0,0
14.01.2019 09:00:00 -0,2 -6,0 45 24 62 34 NW 987,0 50 0,0
14.01.2019 08:00:00 -0,6 -5,6 45 24 62 34 NW 985,9 50 0,0
14.01.2019 07:00:00 -0,6 -5,4 48 26 63 34 NW 984,8 50 0,0
14.01.2019 06:00:00 -0,4 -5,2 44 24 67 36 NW 984,2 50 0,0
14.01.2019 05:00:00 -0,1 -4,9 50 27 67 36 NNW 983,4 50 0,0
14.01.2019 04:00:00 0,4 -4,4 49 26 65 35 NW 982,4 50 0,0
14.01.2019 03:00:00 1,5 -1,9 46 25 64 34 NNW 981,2 50 0,0
14.01.2019 02:00:00 1,6 -1,0 44 24 64 34 NNW 979,5 50 0,0
14.01.2019 01:00:00 1,5 0,0 48 26 63 34 NNW 978,4 34 0,1
14.01.2019 00:00:00 3,0 2,0 32 17 43 23 NNW 977,0 50 0,0
13.01.2019 23:00:00 3,3 2,4 27 15 39 21 NNW 976,1 50 0,0
13.01.2019 22:00:00 3,9 3,8 22 12 27 14 NW 975,7 44 0,2
13.01.2019 21:00:00 3,8 3,6 16 8 24 13 W 975,2 3,2 0,2
13.01.2019 20:00:00 4,0 3,9 19 10 24 13 W 975,0 12 -
13.01.2019 19:00:00 4,0 3,7 19 10 31 17 WSW 975,1 13 0,0
13.01.2019 18:00:00 3,9 3,6 19 11 42 23 W 975,6 30 0,0
13.01.2019 17:00:00 4,1 3,8 30 16 42 23 WSW 976,6 44 0,0
13.01.2019 16:00:00 4,1 4,0 29 15 41 22 WSW 977,7 35 0,0
13.01.2019 15:00:00 3,8 3,5 24 13 40 22 SW 979,4 3,0 0,1
13.01.2019 14:00:00 4,0 3,6 30 16 40 22 SW 981,2 14 0,1
13.01.2019 13:00:00 3,9 3,6 28 15 40 22 WSW 983,2 13 0,1
13.01.2019 12:00:00 3,3 3,0 29 16 36 19 SW 985,0 3,9 0,1
13.01.2019 11:00:00 3,1 2,1 23 13 31 17 WSW 986,9 50 0,0
13.01.2019 10:00:00 2,1 1,2 17 9 26 14 WSW 988,8 27 0,0
13.01.2019 09:00:00 1,9 0,9 16 8 33 18 W 990,2 50 0,0
13.01.2019 08:00:00 1,5 0,0 11 6 33 18 W 991,4 50 0,0
13.01.2019 07:00:00 1,1 -0,8 29 15 33 18 WNW 992,2 50 0,0
13.01.2019 06:00:00 1,0 0,7 14 8 18 10 WNW 992,7 32 0,0
13.01.2019 05:00:00 0,9 0,8 5 3 11 6 NW 993,3 3,3 0,0
13.01.2019 04:00:00 0,7 0,6 5 3 10 6 N 993,4 5 0,0
13.01.2019 03:00:00 1,0 0,7 6 4 12 6 N 994,0 19 0,0
13.01.2019 02:00:00 1,4 1,3 8 5 12 6 NNW 994,4 10 0,0
13.01.2019 01:00:00 1,0 0,9 3 2 11 6 NNE 994,1 8 0,0
13.01.2019 00:00:00 0,5 0,4 10 5 11 6 NE 994,2 4,7 0,0
12.01.2019 23:00:00 1,7 1,6 5 3 7 4 NE 994,7 0,7 0,0
12.01.2019 22:00:00 1,1 0,8 4 2 8 4 N 994,9 0,8 0,1
12.01.2019 21:00:00 2,9 2,8 2 1 10 5 W 995,5 1,8 0,5
12.01.2019 20:00:00 3,1 3,0 6 3 13 7 SSW 995,9 2,3 0,9
12.01.2019 19:00:00 3,1 2,8 6 3 19 10 SW 996,4 3,2 0,5
12.01.2019 18:00:00 2,6 2,3 9 5 25 13 WSW 996,9 8 0,0
12.01.2019 17:00:00 2,5 2,2 13 7 26 14 SW 997,7 3,8 0,0
12.01.2019 16:00:00 2,6 1,6 17 9 26 14 WSW 998,5 11 0,0
12.01.2019 15:00:00 1,9 0,9 16 9 37 20 WSW 999,6 12 0,0
12.01.2019 14:00:00 1,1 0,2 17 9 37 20 W 1000,5 14 0,0
12.01.2019 13:00:00 0,8 0,4 24 13 35 19 W 1001,6 2,3 0,0
12.01.2019 12:00:00 2,6 1,4 20 11 35 19 SW 1002,9 12 0,0
12.01.2019 11:00:00 4,0 0,5 9 5 31 17 SW 1003,8 44 0,0
12.01.2019 10:00:00 2,6 -1,6 21 11 31 17 W 1005,0 50 0,0
12.01.2019 09:00:00 1,9 -2,1 16 8 28 15 W 1005,8 50 0,0
12.01.2019 08:00:00 1,2 -2,6 17 9 34 18 NW 1006,1 50 0,0
12.01.2019 07:00:00 1,2 -2,7 24 13 37 20 NW 1006,3 50 0,0
12.01.2019 06:00:00 0,8 -2,9 29 16 37 20 WNW 1006,6 50 0,0
12.01.2019 05:00:00 1,1 -3,0 29 15 37 20 NW 1006,7 50 0,0
12.01.2019 04:00:00 1,5 -3,0 27 15 34 19 NW 1007,2 50 0,0
12.01.2019 03:00:00 1,5 -2,8 25 13 34 18 NW 1007,5 50 0,0
12.01.2019 02:00:00 1,5 -2,4 24 13 35 19 NW 1007,5 50 0,0
12.01.2019 01:00:00 1,6 -2,4 24 13 35 19 NW 1007,3 50 0,0
12.01.2019 00:00:00 1,3 -2,1 28 15 35 19 NW 1007,2 50 0,0
11.01.2019 23:00:00 1,5 -1,6 27 15 35 19 WNW 1007,2 50 0,0
11.01.2019 22:00:00 1,7 -1,4 26 14 35 19 WNW 1007,1 50 0,0
11.01.2019 21:00:00 2,5 -1,5 26 14 35 19 NW 1007,2 50 0,0
11.01.2019 20:00:00 2,7 -0,2 24 13 32 18 NW 1006,9 50 0,0
11.01.2019 19:00:00 2,2 1,2 22 12 29 16 NW 1006,8 50 0,0
11.01.2019 18:00:00 2,7 1,5 19 10 24 13 NW 1006,6 50 0,0
11.01.2019 17:00:00 2,1 1,5 16 9 22 12 NNW 1006,2 40 0,0
11.01.2019 16:00:00 3,1 2,2 17 9 22 12 NW 1005,7 50 0,0
11.01.2019 15:00:00 4,1 3,2 17 9 25 13 NW 1005,2 50 0,0
11.01.2019 14:00:00 4,4 3,7 18 10 25 14 NW 1005,0 41 0,0
11.01.2019 13:00:00 3,6 3,0 21 11 31 17 WNW 1005,0 41 0,0
11.01.2019 12:00:00 3,4 3,1 18 10 36 19 W 1005,4 14 0,0
11.01.2019 11:00:00 3,6 3,5 21 11 42 23 W 1006,4 4,0 0,0
11.01.2019 10:00:00 3,5 3,2 24 13 44 24 WSW 1006,9 7 0,0
11.01.2019 09:00:00 3,5 3,1 28 15 51 27 WSW 1007,9 14 0,0
11.01.2019 08:00:00 3,3 2,9 34 18 51 27 WSW 1008,1 21 0,0
11.01.2019 07:00:00 3,0 2,6 36 19 54 29 WSW 1008,8 11 -
11.01.2019 06:00:00 2,7 2,3 34 19 55 30 WSW 1010,6 9 0,0
11.01.2019 05:00:00 2,7 2,3 35 19 55 30 WSW 1011,6 3,0 0,0
11.01.2019 04:00:00 3,0 1,5 38 20 55 30 WSW 1012,2 27 0,0
11.01.2019 03:00:00 2,8 0,9 39 21 55 30 WSW 1013,8 50 0,0
11.01.2019 02:00:00 2,3 0,5 34 18 47 25 WSW 1014,8 46 0,0
11.01.2019 01:00:00 1,8 -0,2 32 18 43 23 WSW 1016,0 50 0,0

tt = Température de l'air
td = dewpoint
ff = Vitesse du vent
fx = gusts
dd = Direction du vent
ppp = reduced air pressure
vv = visibility
rr = Quantités de précipitations

stations d'obs. à proximité